Havre, MT

4:09 PM MST on January 18, 2017 (GMT -0700)
Havre City-County

Weather History for KHVR - August, 2013

Change the Weather History Date:

Monday, August 26, 2013

  Actual Average Record
Temperature  
Mean Temperature 76 °F 65 °F  
Max Temperature 92 °F 81 °F 103 °F (2010)
Min Temperature 60 °F 49 °F 35 °F (1914)
Degree Days  
Heating Degree Days 0 3  
Month to date heating degree days 8 36  
Since 1 June heating degree days 129 199  
Since 1 July heating degree days 16 66  
Cooling Degree Days 11 3  
Month to date cooling degree days 146 136  
Year to date cooling degree days 342 357  
Since 1 June cooling degree days 335 346  
Growing Degree Days 26 (Base 50)    
Moisture  
Dew Point 53 °F    
Average Humidity 52    
Maximum Humidity 84    
Minimum Humidity 19    
Precipitation  
Precipitation 0.12 in 0.04 in 0.71 in (1954)
Month to date precipitation 1.05 0.94  
Year to date precipitation 15.01 8.50  
Snow  
Snow 0.00 in 0.00 in T in (1954)
Month to date snowfall 0.0 0.0  
Since 1 June snowfall 0.0 0.0  
Since 1 July snowfall 0.0 0.0  
Snow Depth 0.00 in    
Sea Level Pressure  
Sea Level Pressure 29.87 in    
Wind  
Wind Speed 6 mph (SW)    
Max Wind Speed 43 mph    
Max Gust Speed 52 mph    
Visibility 10 miles    
Events Rain , Thunderstorm    
T = Trace of Precipitation, MM = Missing Value Source: NWS Daily Summary

Daily Weather History Graph

Daily Weather History Graph

Search for Another Location

Airport or City:

Trip Planner

Search our weather history database for the weather conditions in past years. The results will help you decide how hot, cold, wet, or windy it might be!

Date:

Astronomy

Aug. 26, 2013 Rise Set
Actual Time 6:28 AM MDT 8:12 PM MDT
Civil Twilight 5:55 AM MDT 8:45 PM MDT
Nautical Twilight 5:14 AM MDT 9:25 PM MDT
Astronomical Twilight 4:29 AM MDT 10:10 PM MDT
Moon 10:50 PM MDT (8/26) 1:06 PM MDT (8/26)
Length of Visible Light 14h 50m
Length of Day
13h 43m
Waning Gibbous, 66% of the Moon is Illuminated
Aug 26
Waning Gibbous
Aug 28
Last Quarter
Sep 5
New
Sep 12
First Quarter
Sep 19
Full

Hourly Weather History & Observations

Time (MDT) Temp. Dew Point Humidity Pressure Visibility Wind Dir Wind Speed Gust Speed Precip Events Conditions
12:53 AM 75.0 °F 48.0 °F 38% 29.83 in 10.0 mi East 9.2 mph - 0.00 in   Clear
1:53 AM 73.9 °F 48.9 °F 41% 29.81 in 10.0 mi Variable 5.8 mph - 0.00 in   Partly Cloudy
2:53 AM 68.0 °F 53.1 °F 59% 29.85 in 10.0 mi West 4.6 mph - N/A   Scattered Clouds
3:53 AM 68.0 °F 54.0 °F 61% 29.82 in 10.0 mi ESE 6.9 mph - 0.00 in   Overcast
4:53 AM 66.9 °F 54.0 °F 63% 29.82 in 10.0 mi Calm Calm - N/A   Partly Cloudy
5:53 AM 61.0 °F 55.0 °F 81% 29.86 in 10.0 mi WSW 10.4 mph - N/A   Clear
6:53 AM 61.0 °F 54.0 °F 78% 29.89 in 10.0 mi SW 6.9 mph - N/A   Clear
7:53 AM 64.9 °F 55.0 °F 70% 29.91 in 10.0 mi SW 4.6 mph - N/A   Clear
8:53 AM 68.0 °F 54.0 °F 61% 29.93 in 10.0 mi WSW 15.0 mph - 0.00 in   Clear
9:53 AM 75.9 °F 54.0 °F 46% 29.91 in 10.0 mi WSW 10.4 mph - N/A   Clear
10:53 AM 78.1 °F 52.0 °F 40% 29.91 in 10.0 mi Variable 4.6 mph - N/A   Clear
11:53 AM 80.1 °F 48.9 °F 34% 29.90 in 10.0 mi SSW 3.5 mph - N/A   Clear
12:53 PM 84.9 °F 48.0 °F 28% 29.87 in 10.0 mi Variable 5.8 mph - N/A   Clear
1:53 PM 84.9 °F 46.9 °F 27% 29.85 in 10.0 mi Calm Calm - N/A   Clear
2:53 PM 89.1 °F 46.9 °F 23% 29.84 in 10.0 mi Variable 6.9 mph - N/A   Clear
3:53 PM 90.0 °F 45.0 °F 21% 29.81 in 10.0 mi WSW 3.5 mph - N/A   Clear
4:53 PM 90.0 °F 41.0 °F 18% 29.80 in 10.0 mi SSW 6.9 mph - N/A   Clear
5:53 PM 90.0 °F 41.0 °F 18% 29.80 in 10.0 mi South 6.9 mph - N/A   Clear
6:53 PM 86.0 °F 44.1 °F 23% 29.80 in 10.0 mi SW 3.5 mph - N/A   Unknown
7:15 PM 84.2 °F 42.8 °F 23% 29.86 in 10.0 mi SSW 15.0 mph 21.9 mph N/A Thunderstorm Thunderstorm
7:36 PM 71.6 °F 57.2 °F 60% 29.88 in 8.0 mi WNW 10.4 mph 26.5 mph 0.02 in Rain , Thunderstorm Light Rain
7:53 PM 72.0 °F 57.0 °F 59% 29.85 in 10.0 mi NW 9.2 mph - 0.02 in   Partly Cloudy
8:42 PM 69.8 °F 60.8 °F 73% 29.90 in 10.0 mi NE 4.6 mph - 0.00 in Rain , Thunderstorm Light Rain
8:53 PM 69.1 °F 59.0 °F 70% 29.87 in 10.0 mi SSE 4.6 mph - 0.00 in Thunderstorm Mostly Cloudy
9:22 PM 66.2 °F 60.8 °F 83% 29.89 in 10.0 mi East 8.1 mph - N/A   Clear
9:53 PM 66.9 °F 60.1 °F 79% 29.86 in 10.0 mi South 4.6 mph - 0.00 in Rain Light Rain
10:49 PM 66.2 °F 60.8 °F 83% 29.93 in 10.0 mi West 3.5 mph - 0.00 in Thunderstorm Mostly Cloudy
10:53 PM 68.0 °F 57.9 °F 70% 29.89 in 10.0 mi SE 3.5 mph - 0.00 in Thunderstorm Mostly Cloudy
11:04 PM 66.2 °F 57.2 °F 73% 29.98 in 10.0 mi West 19.6 mph 24.2 mph N/A   Overcast
11:20 PM 64.4 °F 57.2 °F 77% 29.98 in 4.0 mi WSW 11.5 mph 29.9 mph 0.06 in Rain Heavy Rain
11:45 PM 64.4 °F 59.0 °F 83% 29.97 in 10.0 mi West 8.1 mph - 0.06 in Rain , Thunderstorm Light Rain
11:53 PM 63.0 °F 60.1 °F 90% 29.93 in 10.0 mi WNW 9.2 mph - 0.06 in Rain , Thunderstorm Light Rain